User: anonymous   Login
Location: Newark
(34.1333°N, 7.9667°W)
Time: 08:53:25
(UTC+00:00)
Language:

S-56A Canister/Altair - Orbit

View from above orbital plane
View from above orbital plane
View from above satellite
View from above satellite

Ground track
Ground track

The orbit data is extracted from the following two-line orbital elements,

1 00082U 61004B   21332.90638905 -.00000134  00000-0 -62633-4 0  9996
2 00082  38.8574  37.9002 1174739 118.7904 253.5802 12.26013156872795
Epoch (UTC): 28 November 2021 21:45:12
Eccentricity: 0.1174739
inclination: 38.8574°
perigee height: 633 km
apogee height: 2500 km
right ascension of ascending node: 37.9002°
argument of perigee: 118.7904°
revolutions per day: 12.26013156
mean anomaly at epoch: 253.5802°
orbit number at epoch: 87279

The dashed part of the orbit path shows where the satellite is in the earth's shadow,  

DLR